Retour au catalogue

COSMOS 2251 DEB

ActifLEO
NORAD 33994·DEBRIS·🇷🇺 Russia

Lancé Jun 16, 1993 depuis Plesetsk Cosmodrome

Loading…

Prochains Passages (prochaines 24 heures)

TLE

FraisSource: Space-Track

Époque: Sep 14, 2026, 09:16 UTC

1 33994U 93036GD  26257.38658580  .00000158  00000-0  56822-4 0  9995
2 33994  74.0437  40.2356 0022083 109.2154 281.0221 14.41366463923910

Suivez COSMOS 2251 DEB en temps réel avec AllMySat

Download on the App Store